Weather History for KHEI - April, 2014

Change the Weather History Date:

Monday, April 14, 2014

  Actual Average Record
Temperature  
Mean Temperature 28 °F -  
Max Temperature 37 °F 55 °F 81 °F (2015)
Min Temperature 19 °F 28 °F 19 °F (2014)
Degree Days  
Heating Degree Days 37 24  
Month to date heating degree days 435 368  
Since 1 July heating degree days 8330 7777  
Cooling Degree Days 0 0  
Month to date cooling degree days 0 0  
Year to date cooling degree days 0 0  
Moisture  
Dew Point 13 °F    
Average Humidity 61    
Maximum Humidity 88    
Minimum Humidity 27    
Precipitation  
Precipitation T in 0.04 in 0.31 in (2011)
Month to date precipitation 0.01 0.50  
Year to date precipitation 0.54 1.99  
Sea Level Pressure  
Sea Level Pressure 30.24 in    
Wind  
Wind Speed 12 mph (NNW)    
Max Wind Speed 24 mph    
Max Gust Speed 30 mph    
Visibility 8 miles    
Events Snow    
T = Trace of Precipitation, MM = Missing Value Source: NWS Daily Summary

Daily Weather History Graph

Daily Weather History Graph

Search for Another Location

Airport or City:

Trip Planner

Search our weather history database for the weather conditions in past years. The results will help you decide how hot, cold, wet, or windy it might be!

Date:

Astronomy

Apr. 14, 2014 Rise Set
Actual Time 6:06 AM MDT 7:36 PM MDT
Civil Twilight 5:34 AM MDT 8:07 PM MDT
Nautical Twilight 4:57 AM MDT 8:45 PM MDT
Astronomical Twilight 4:16 AM MDT 9:26 PM MDT
Moon 7:16 PM MDT (4/14) 5:41 AM MDT (4/14)
Length of Visible Light 14h 32m
Length of Day
13h 30m
Full, 100% of the Moon is Illuminated
Apr 14
Full
Apr 15
Full
Apr 22
Last Quarter
Apr 29
New
May 6
First Quarter

Hourly Weather History & Observations

Time (MDT) Temp. Windchill Dew Point Humidity Pressure Visibility Wind Dir Wind Speed Gust Speed Precip Events Conditions
12:53 AM 19.9 °F 13.4 °F 12.0 °F 71% 30.29 in 10.0 mi West 4.6 mph - N/A   Clear
1:53 AM 25.0 °F 13.1 °F 17.1 °F 72% 30.25 in 10.0 mi West 13.8 mph - N/A   Overcast
3:53 AM 24.1 °F 15.2 °F 19.0 °F 81% 30.23 in 10.0 mi WNW 8.1 mph - N/A   Mostly Cloudy
4:53 AM 23.0 °F 11.7 °F 19.9 °F 88% 30.23 in 10.0 mi WNW 11.5 mph - N/A   Clear
5:53 AM 21.0 °F 9.9 °F 18.0 °F 88% 30.24 in 10.0 mi NW 10.4 mph - N/A   Clear
6:39 AM 23.0 °F 9.6 °F 19.0 °F 85% 30.17 in 10.0 mi NW 16.1 mph - N/A   Mostly Cloudy
6:53 AM 23.0 °F 9.6 °F 19.0 °F 85% 30.27 in 10.0 mi NW 16.1 mph - N/A   Overcast
7:44 AM 25.0 °F 10.6 °F 17.1 °F 72% 30.19 in 6.0 mi NW 20.7 mph 25.3 mph 0.00 in Snow Light Snow
7:53 AM 25.0 °F 9.9 °F 18.0 °F 75% 30.29 in 5.0 mi NNW 23.0 mph 29.9 mph 0.00 in Snow Light Snow
8:02 AM 25.0 °F 10.2 °F 18.0 °F 75% 30.19 in 2.0 mi NNW 21.9 mph - 0.00 in Snow Light Snow
8:08 AM 25.0 °F 9.9 °F 18.0 °F 75% 30.20 in 5.0 mi NNW 23.0 mph 26.5 mph 0.00 in Snow Light Snow
8:53 AM 24.1 °F 11.5 °F 16.0 °F 71% 30.34 in 7.0 mi North 15.0 mph - 0.00 in Snow Light Snow
9:06 AM 25.0 °F 13.1 °F 17.1 °F 72% 30.22 in 2.5 mi North 13.8 mph - 0.00 in Snow Light Snow
9:14 AM 27.0 °F 14.7 °F 17.1 °F 66% 30.22 in 9.0 mi North 16.1 mph 21.9 mph 0.00 in   Overcast
9:24 AM 27.0 °F 14.7 °F 17.1 °F 66% 30.22 in 10.0 mi North 16.1 mph - 0.00 in   Overcast
9:53 AM 28.0 °F 17.5 °F 16.0 °F 61% 30.34 in 3.0 mi North 12.7 mph - 0.00 in Snow Light Snow
10:15 AM 30.0 °F 19.5 °F 18.0 °F 61% 30.23 in 6.0 mi North 13.8 mph - 0.00 in Snow Light Snow
10:53 AM 28.0 °F 15.3 °F 15.1 °F 58% 30.35 in 7.0 mi NNW 18.4 mph - 0.00 in Snow Light Snow
11:05 AM 30.9 °F 21.7 °F 14.0 °F 50% 30.22 in 9.0 mi North 11.5 mph - 0.00 in   Overcast
12:53 PM 32.0 °F 23.0 °F 8.1 °F 37% 30.31 in 10.0 mi NNW 11.5 mph 20.7 mph N/A   Mostly Cloudy
1:53 PM 35.1 °F 25.2 °F 8.1 °F 33% 30.28 in 10.0 mi NNW 16.1 mph 24.2 mph N/A   Partly Cloudy
2:53 PM 36.0 °F 27.5 °F 6.1 °F 29% 30.25 in 10.0 mi NW 12.7 mph - N/A   Clear
3:53 PM 35.1 °F 30.1 °F 6.1 °F 30% 30.23 in 10.0 mi Variable 5.8 mph - N/A   Clear
4:53 PM 37.0 °F 31.6 °F 6.1 °F 28% 30.21 in 10.0 mi Variable 6.9 mph - N/A   Clear
5:53 PM 37.0 °F 31.0 °F 6.1 °F 28% 30.20 in 10.0 mi North 8.1 mph - N/A   Clear
6:53 PM 34.0 °F 26.6 °F 5.0 °F 30% 30.19 in 10.0 mi NNW 9.2 mph - N/A   Clear
7:53 PM 23.0 °F 13.9 °F 10.0 °F 58% 30.20 in 10.0 mi East 8.1 mph - N/A   Clear
8:53 PM 24.1 °F 12.5 °F 9.0 °F 53% 30.21 in 10.0 mi East 12.7 mph - N/A   Clear
9:53 PM 21.9 °F 10.4 °F 10.0 °F 60% 30.19 in 10.0 mi East 11.5 mph - N/A   Clear
10:53 PM 19.9 °F 10.1 °F 10.0 °F 65% 30.19 in 10.0 mi ESE 8.1 mph - N/A   Clear
11:53 PM 19.9 °F 8.6 °F 8.1 °F 60% 30.17 in 10.0 mi SE 10.4 mph - N/A   Partly Cloudy